Weather History for Nassau Airport, Bahamas

Change the Weather History Date:

Tuesday, October 30, 2012

  Actual Average Record
Temperature  
Mean Temperature 72 °F -  
Max Temperature 76 °F 82 °F - ()
Min Temperature 68 °F 68 °F - ()
Cooling Degree Days 7    
Growing Degree Days 22 (Base 50)    
Moisture  
Dew Point 57 °F    
Average Humidity 59    
Maximum Humidity 69    
Minimum Humidity 47    
Precipitation  
Precipitation 0.00 in 0.07 in - ()
Sea Level Pressure  
Sea Level Pressure 29.91 in    
Wind  
Wind Speed 10 mph ()    
Max Wind Speed 25 mph    
Max Gust Speed 24 mph    
Visibility 6.9 miles    
Events      
T = Trace of Precipitation, MM = Missing Value Source: Averaged Metar Reports

Daily Weather History Graph

Daily Weather History Graph

Search for Another Location

Airport:

Trip Planner

Search our weather history database for the weather conditions in past years. The results will help you decide how hot, cold, wet, or windy it might be!

Date:

Astronomy

Oct. 30, 2012 Rise Set
Actual Time 7:16 AM EDT 6:30 PM EDT
Civil Twilight 6:52 AM EDT 6:53 PM EDT
Nautical Twilight 6:25 AM EDT 7:20 PM EDT
Astronomical Twilight 5:59 AM EDT 7:47 PM EDT
Moon 7:07 PM EDT (10/30) 7:53 AM EDT (10/30)
Length of Visible Light 12h 00m
Length of Day
11h 13m
Full, 99% of the Moon is Illuminated
Oct 30
Full
Nov 6
Last Quarter
Nov 13
New
Nov 20
First Quarter
Nov 28
Full

Hourly Weather History & Observations

Time (EDT) Temp. Dew Point Humidity Pressure Visibility Wind Dir Wind Speed Gust Speed Precip Events Conditions
12:00 AM 69.8 °F 55.4 °F 60% 29.84 in 6.2 mi SSW 5.8 mph - N/A   Partly Cloudy
1:00 AM 69.8 °F 57.2 °F 64% 29.83 in 6.2 mi SSW 5.8 mph - N/A   Mostly Cloudy
2:00 AM 71 °F 60 °F 61% 29.83 in 9 mi West 12.7 mph - -   Mostly Cloudy
2:00 AM 71.6 °F 60.8 °F 69% 29.83 in 6.2 mi West 12.7 mph - N/A   Scattered Clouds
3:00 AM 69.8 °F 57.2 °F 64% 29.83 in 6.2 mi WSW 17.3 mph - N/A   Scattered Clouds
4:00 AM 69.8 °F 53.6 °F 56% 29.84 in 6.2 mi SW 16.1 mph - N/A   Scattered Clouds
5:00 AM 69 °F 58 °F 59% 29.85 in 9 mi SW 11.5 mph - -   Mostly Cloudy
5:00 AM 69.8 °F 57.2 °F 64% 29.85 in 6.2 mi SW 11.5 mph 24.2 mph N/A   Scattered Clouds
6:00 AM 68.0 °F 50.0 °F 52% 29.87 in 6.2 mi SW 18.4 mph - N/A   Partly Cloudy
7:00 AM 68.0 °F 50.0 °F 52% 29.88 in 6.2 mi West 16.1 mph - N/A   Partly Cloudy
8:00 AM 69 °F 53 °F 47% 29.91 in 9 mi WSW 11.5 mph - -   Scattered Clouds
8:00 AM 68.0 °F 53.6 °F 60% 29.90 in 6.2 mi WSW 11.5 mph - N/A   Partly Cloudy
9:00 AM 69.8 °F 53.6 °F 56% 29.92 in 6.2 mi WSW 8.1 mph - N/A   Partly Cloudy
10:00 AM 69.8 °F 55.4 °F 60% 29.94 in 6.2 mi WSW 16.1 mph - N/A   Scattered Clouds
11:00 AM 73 °F 58 °F 50% 29.95 in 9 mi West 12.7 mph - -   Partly Cloudy
11:00 AM 73.4 °F 59.0 °F 61% 29.95 in 6.2 mi West 12.7 mph - N/A   Scattered Clouds
12:00 PM 73.4 °F 55.4 °F 53% 29.94 in 6.2 mi WSW 11.5 mph - N/A   Scattered Clouds
1:00 PM 75.2 °F 55.4 °F 50% 29.93 in 6.2 mi WSW 25.3 mph - N/A   Scattered Clouds
2:00 PM 76 °F 60 °F 47% 29.92 in 9 mi West 13.8 mph - -   Scattered Clouds
2:00 PM 77.0 °F 59.0 °F 54% 29.91 in 6.2 mi West 13.8 mph - N/A   Partly Cloudy
3:00 PM 73.4 °F 57.2 °F 57% 29.90 in 6.2 mi West 12.7 mph - N/A   Partly Cloudy
4:00 PM 73.4 °F 59.0 °F 61% 29.90 in 6.2 mi WSW 17.3 mph - N/A   Partly Cloudy
5:00 PM 74 °F 61 °F 54% 29.91 in 9 mi WSW 10.4 mph - -   Scattered Clouds
5:00 PM 73.4 °F 60.8 °F 65% 29.91 in 6.2 mi WSW 10.4 mph - N/A   Partly Cloudy
6:00 PM 69.8 °F 57.2 °F 64% 29.91 in 6.2 mi WSW 6.9 mph - N/A   Partly Cloudy
7:00 PM 69.8 °F 57.2 °F 64% 29.92 in 6.2 mi WSW 6.9 mph - N/A   Partly Cloudy
8:00 PM 69 °F 60 °F 64% 29.95 in 9 mi WSW 3.5 mph - -   Partly Cloudy
8:00 PM 69.8 °F 59.0 °F 68% 29.94 in 6.2 mi WSW 5.8 mph - N/A   Scattered Clouds
9:00 PM 69.8 °F 57.2 °F 64% 29.96 in 6.2 mi SW 3.5 mph - N/A   Scattered Clouds
10:00 PM 69.8 °F 55.4 °F 60% 30.00 in 6.2 mi SW 9.2 mph - N/A   Scattered Clouds
11:00 PM 70 °F 59 °F 61% 30.01 in 9 mi WSW 9.2 mph - -   Partly Cloudy
11:00 PM 69.8 °F 59.0 °F 68% 30.01 in 6.2 mi WSW 9.2 mph - N/A   Scattered Clouds